When you browse on this site, cookies collect data to enhance your experience and personalize the content and advertising you see.
Visit our Privacy Policy to learn more. By continuing to use the site, you agree to this use of cookies and data.
  • In Hungary
  • List of Countries
  • For 7 days
  • Water Temperature
  • Weather Map
  • News
  • Weather Widgets
  • user-avatar
    Login

    Hourly Weather Borden-Carleton

    Today, 15 November, Friday

    Time Temperature Precipitation Wind Pressure Humidity
    00:00 -4°C° 0 mm 8 mps 771 mmHg 70%
    01:00 -2°C° 0 mm 8 mps 770 mmHg 74%
    02:00 -2°C° 0 mm 8 mps 770 mmHg 77%
    03:00 -1°C° 0 mm 9 mps 769 mmHg 77%
    04:00 -1°C° 0 mm 9 mps 768 mmHg 78%
    05:00 0°C° 0 mm 10 mps 768 mmHg 78%
    06:00 0°C° 0 mm 10 mps 767 mmHg 78%
    07:00 +1°C° 0 mm 11 mps 766 mmHg 77%
    08:00 +1°C° 0 mm 11 mps 765 mmHg 77%
    09:00 +2°C° 0.2 mm 11 mps 764 mmHg 79%
    10:00 +2°C° 0.2 mm 12 mps 763 mmHg 82%
    11:00 +3°C° 0.2 mm 12 mps 762 mmHg 85%
    12:00 +4°C° 0.4 mm 11 mps 761 mmHg 83%
    13:00 +5°C° 0.4 mm 10 mps 760 mmHg 81%
    14:00 +6°C° 0.4 mm 9 mps 758 mmHg 79%
    15:00 +5°C° 0 mm 9 mps 758 mmHg 77%
    16:00 +3°C° 0 mm 9 mps 758 mmHg 76%
    17:00 +3°C° 0 mm 10 mps 758 mmHg 75%
    18:00 +2°C° 0 mm 10 mps 758 mmHg 75%
    19:00 +1°C° 0 mm 10 mps 757 mmHg 75%
    20:00 +1°C° 0 mm 10 mps 757 mmHg 75%
    21:00 0°C° 0 mm 10 mps 757 mmHg 74%
    22:00 -2°C° 0 mm 10 mps 757 mmHg 73%
    23:00 -2°C° 0 mm 11 mps 757 mmHg 72%

    Tomorrow, 16 November, Saturday

    Time Temperature Precipitation Wind Pressure Humidity
    00:00 -3°C° 0 mm 11 mps 758 mmHg 70%
    01:00 -6°C° 0 mm 12 mps 758 mmHg 68%
    02:00 -7°C° 0 mm 12 mps 759 mmHg 66%
    03:00 -8°C° 0 mm 12 mps 759 mmHg 64%
    04:00 -10°C° 0 mm 12 mps 760 mmHg 63%
    05:00 -11°C° 0 mm 12 mps 760 mmHg 61%
    06:00 -12°C° 0 mm 13 mps 761 mmHg 63%
    07:00 -14°C° 0 mm 13 mps 762 mmHg 66%
    08:00 -14°C° 0 mm 14 mps 762 mmHg 68%
    09:00 -12°C° 0 mm 13 mps 763 mmHg 66%
    10:00 -11°C° 0 mm 13 mps 763 mmHg 64%
    11:00 -10°C° 0 mm 13 mps 764 mmHg 62%
    12:00 -9°C° 0 mm 13 mps 764 mmHg 61%
    13:00 -7°C° 0 mm 12 mps 764 mmHg 59%
    14:00 -6°C° 0 mm 12 mps 765 mmHg 58%
    15:00 -7°C° 0 mm 12 mps 765 mmHg 59%
    16:00 -7°C° 0 mm 11 mps 766 mmHg 61%
    17:00 -7°C° 0 mm 10 mps 767 mmHg 62%
    18:00 -8°C° 0 mm 11 mps 768 mmHg 64%
    19:00 -8°C° 0 mm 11 mps 768 mmHg 65%
    20:00 -8°C° 0 mm 11 mps 769 mmHg 67%
    21:00 -8°C° 0 mm 10 mps 770 mmHg 69%
    22:00 -8°C° 0 mm 9 mps 770 mmHg 70%
    23:00 -8°C° 0 mm 9 mps 770 mmHg 72%

    Day after tomorrow, 17 November, Sunday

    Time Temperature Precipitation Wind Pressure Humidity
    00:00 -8°C° 0 mm 8 mps 770 mmHg 73%
    01:00 -8°C° 0 mm 8 mps 771 mmHg 73%
    02:00 -8°C° 0 mm 7 mps 771 mmHg 73%
    03:00 -8°C° 0 mm 7 mps 771 mmHg 74%
    04:00 -8°C° 0 mm 6 mps 771 mmHg 74%
    05:00 -8°C° 0 mm 6 mps 772 mmHg 75%
    06:00 -6°C° 0 mm 5 mps 772 mmHg 75%
    07:00 -6°C° 0 mm 5 mps 772 mmHg 76%
    08:00 -5°C° 0 mm 4 mps 773 mmHg 76%
    09:00 -4°C° 0 mm 4 mps 773 mmHg 72%
    10:00 -2°C° 0 mm 3 mps 773 mmHg 68%
    11:00 -2°C° 0 mm 3 mps 773 mmHg 64%
    12:00 -1°C° 0 mm 2 mps 773 mmHg 63%
    13:00 -1°C° 0 mm 2 mps 772 mmHg 61%
    14:00 -1°C° 0 mm 2 mps 772 mmHg 60%
    15:00 +1°C° 0 mm 1 mps 772 mmHg 63%
    16:00 0°C° 0 mm 1 mps 772 mmHg 67%
    17:00 -1°C° 0 mm 1 mps 771 mmHg 71%
    18:00 -1°C° 0 mm 1 mps 771 mmHg 72%
    19:00 -1°C° 0 mm 1 mps 771 mmHg 73%
    20:00 -1°C° 0 mm 1 mps 771 mmHg 74%
    21:00 -1°C° 0 mm 1 mps 771 mmHg 74%
    22:00 -3°C° 0 mm 2 mps 771 mmHg 75%
    23:00 -3°C° 0 mm 2 mps 770 mmHg 76%

    18 November, Monday

    Time Temperature Precipitation Wind Pressure Humidity
    00:00 -3°C° 0 mm 2 mps 770 mmHg 76%
    01:00 -4°C° 0 mm 3 mps 770 mmHg 76%
    02:00 -4°C° 0 mm 3 mps 769 mmHg 76%
    03:00 -2°C° 0 mm 3 mps 769 mmHg 77%
    04:00 -2°C° 0 mm 3 mps 769 mmHg 77%
    05:00 -2°C° 0 mm 3 mps 768 mmHg 78%
    06:00 -3°C° 0 mm 4 mps 768 mmHg 78%
    07:00 -2°C° 0 mm 4 mps 768 mmHg 78%
    08:00 -2°C° 0 mm 5 mps 767 mmHg 78%
    09:00 -1°C° 0 mm 5 mps 767 mmHg 76%
    10:00 -1°C° 0 mm 6 mps 766 mmHg 74%
    11:00 +1°C° 0 mm 6 mps 766 mmHg 72%
    12:00 +2°C° 0 mm 7 mps 765 mmHg 71%
    13:00 +2°C° 0 mm 7 mps 764 mmHg 70%
    14:00 +2°C° 0 mm 7 mps 763 mmHg 70%
    15:00 0°C° 0 mm 7 mps 763 mmHg 72%
    16:00 0°C° 0 mm 7 mps 762 mmHg 75%
    17:00 -1°C° 0 mm 7 mps 762 mmHg 78%
    18:00 -1°C° 0 mm 7 mps 761 mmHg 78%
    19:00 0°C° 0 mm 7 mps 761 mmHg 78%
    20:00 0°C° 0 mm 7 mps 760 mmHg 78%
    21:00 0°C° 0.8 mm 8 mps 759 mmHg 81%
    22:00 0°C° 0.8 mm 9 mps 758 mmHg 84%
    23:00 0°C° 0.8 mm 9 mps 757 mmHg 87%

    19 November, Tuesday

    Time Temperature Precipitation Wind Pressure Humidity
    00:00 +1°C° 0.6 mm 10 mps 755 mmHg 86%
    01:00 +1°C° 0.6 mm 11 mps 754 mmHg 84%
    02:00 +2°C° 0.6 mm 11 mps 752 mmHg 83%
    03:00 +2°C° 3.1 mm 11 mps 751 mmHg 87%
    04:00 +2°C° 3.1 mm 10 mps 749 mmHg 91%
    05:00 +2°C° 3.1 mm 9 mps 748 mmHg 95%
    06:00 +2°C° 2.1 mm 9 mps 747 mmHg 94%
    07:00 +3°C° 2.1 mm 9 mps 746 mmHg 94%
    08:00 +3°C° 2.1 mm 9 mps 745 mmHg 94%
    09:00 +3°C° 0.2 mm 9 mps 744 mmHg 94%
    10:00 +4°C° 0.2 mm 8 mps 744 mmHg 94%
    11:00 +4°C° 0.2 mm 7 mps 744 mmHg 94%
    12:00 +4°C° 0.2 mm 8 mps 744 mmHg 94%
    13:00 +2°C° 0.2 mm 9 mps 745 mmHg 93%
    14:00 +2°C° 0.2 mm 9 mps 745 mmHg 92%
    15:00 +1°C° 0.1 mm 9 mps 747 mmHg 92%
    16:00 +1°C° 0.1 mm 9 mps 748 mmHg 93%
    17:00 0°C° 0.1 mm 9 mps 750 mmHg 93%
    18:00 0°C° 0 mm 9 mps 751 mmHg 92%
    19:00 0°C° 0 mm 8 mps 752 mmHg 90%
    20:00 -1°C° 0 mm 8 mps 753 mmHg 88%
    21:00 -1°C° 0 mm 8 mps 753 mmHg 87%
    22:00 -1°C° 0 mm 8 mps 754 mmHg 86%
    23:00 -1°C° 0 mm 8 mps 754 mmHg 86%

    20 November, Wednesday

    Time Temperature Precipitation Wind Pressure Humidity
    00:00 -1°C° 0 mm 7 mps 754 mmHg 86%
    01:00 -1°C° 0 mm 7 mps 755 mmHg 86%
    02:00 -1°C° 0 mm 6 mps 755 mmHg 85%
    03:00 -2°C° 0 mm 6 mps 755 mmHg 86%
    04:00 -2°C° 0 mm 6 mps 756 mmHg 87%
    05:00 -1°C° 0 mm 5 mps 756 mmHg 88%
    06:00 -1°C° 0 mm 5 mps 756 mmHg 88%
    07:00 -2°C° 0 mm 5 mps 756 mmHg 88%
    08:00 -2°C° 0 mm 4 mps 756 mmHg 88%
    09:00 -1°C° 0 mm 4 mps 756 mmHg 84%
    10:00 0°C° 0 mm 4 mps 756 mmHg 81%
    11:00 +1°C° 0 mm 4 mps 755 mmHg 77%
    12:00 +1°C° 0 mm 4 mps 755 mmHg 77%
    13:00 +1°C° 0 mm 4 mps 755 mmHg 76%
    14:00 +3°C° 0 mm 4 mps 754 mmHg 75%
    15:00 +1°C° 0 mm 4 mps 754 mmHg 78%
    16:00 0°C° 0 mm 4 mps 754 mmHg 80%
    17:00 0°C° 0 mm 5 mps 754 mmHg 83%
    18:00 0°C° 0 mm 5 mps 754 mmHg 83%
    19:00 0°C° 0 mm 5 mps 754 mmHg 83%
    20:00 0°C° 0 mm 5 mps 754 mmHg 83%
    21:00 -1°C° 0 mm 5 mps 754 mmHg 86%
    22:00 -1°C° 0 mm 5 mps 754 mmHg 89%
    23:00 -1°C° 0 mm 5 mps 754 mmHg 92%
    Show more